Flag for Germany Weather past 2 weeks in Hofheim am Taunus, Hesse, Germany

Now
32 °F

Partly sunny.


Feels Like: 32 °F
Forecast: 36 / 44 °F
Wind: No wind

Location: Wiesbaden Airport

Current Time: Mar 3, 2015 at 8:46:39 AM

Latest Report: Mar 3, 2015 at 7:58 AM


Visibility: N/A

Pressure: 30.17 "Hg

Humidity: 87%

Dew point: 28 °F

Location of Hofheim am TaunusLocation

Historic Weather in Hofheim am Taunus — Graph

°F

Hofheim am Taunus temperature yesterday

Maximum temperature yesterday: 50 °F (at 1:58 PM)
Minimum temperature yesterday: 36 °F (at 10:58 PM)
Average temperature yesterday: 44 °F

Past Weeks' High & Low Weather Summary

 TemperatureHumidityPressure
High52 °F (Feb 20, 1:58 PM)100% (Feb 22, 5:58 AM)30.78 "Hg (Feb 22, 5:58 AM)
Low29 °F (Feb 28, 6:58 AM)43% (Mar 2, 3:58 PM)29.47 "Hg (Feb 21, 6:58 AM)
Average39 °F83%30.01 "Hg
* Reported Feb 16 7:58 AM — Mar 3 7:58 AM, Hofheim am Taunus, Weather by CustomWeather, © 2015

Note: Actual official high and low records may vary slightly from our data, if they occured in-between our weather recording intervals... More about our weather records

Advertising

Hofheim am Taunus weather history for previous 24 hours

 ConditionsComfort  
Time TempWeatherWind HumidityBarometerVisibility
7:58 AM
Tue, Mar 3
32 °FPartly sunny.No wind87%30.17 "HgN/A
6:58 AM33 °FPassing clouds.2 mph85%30.16 "HgN/A
5:58 AM33 °FClear.3 mph84%30.16 "HgN/A
4:58 AM33 °FClear.5 mph82%30.15 "HgN/A
3:58 AM34 °FClear.8 mph82%30.14 "HgN/A
2:58 AM34 °FClear.2 mph81%30.13 "HgN/A
1:58 AM36 °FPassing clouds.9 mph87%30.05 "HgN/A
12:58 AM35 °FLight freezing rain. Mostly cloudy.21 mph88%30.02 "HgN/A
11:58 PM
Mon, Mar 2
36 °FClear.5 mph81%29.98 "HgN/A
10:58 PM36 °FClear.8 mph87%29.95 "HgN/A
9:58 PM39 °FPassing clouds.10 mph75%29.92 "HgN/A
9:02 PM37 °FLight rain. Partly cloudy.16 mph81%29.88 "Hg5 mi
8:58 PM39 °FRain. Partly cloudy.22 mph75%29.90 "Hg5 mi
7:58 PM41 °FOvercast.13 mph76%29.85 "HgN/A
7:03 PM43 °FLight rain. Mostly cloudy.17 mph81%29.79 "Hg6 mi
7:00 PM43 °FLight rain. Mostly cloudy.21 mph81%29.79 "Hg6 mi
5:58 PM48 °FMostly cloudy.13 mph46%29.76 "HgN/A
4:58 PM48 °FPartly sunny.13 mph50%29.78 "HgN/A
3:58 PM50 °FScattered clouds.17 mph43%29.76 "HgN/A
2:58 PM50 °FCloudy.14 mph50%29.77 "HgN/A
1:58 PM50 °FScattered clouds.12 mph50%29.76 "HgN/A
12:58 PM48 °FScattered clouds.14 mph54%29.76 "HgN/A
11:58 AM46 °FPassing clouds.14 mph57%29.75 "HgN/A
11:02 AM43 °FScattered clouds.10 mph71%29.74 "HgN/A
10:58 AM43 °FBroken clouds.10 mph71%29.76 "HgN/A
10:00 AM45 °FPartly sunny.14 mph66%29.69 "HgN/A
8:58 AM42 °FPassing clouds.10 mph80%29.69 "HgN/A
8:01 AM43 °FLight rain. Mostly cloudy.9 mph71%29.64 "HgN/A
Weather by CustomWeather, © 2015

See weather overviewHow to use our weather pages